TimeEST,TemperatureF,Dew PointF,Humidity,Sea Level PressureIn,VisibilityMPH,Wind Direction,Wind SpeedMPH,Gust SpeedMPH,PrecipitationIn,Events,Conditions,WindDirDegrees,DateUTC
12:15 AM,66.2,60.8,83,29.89,10.0,South,12.7,21.9,N/A,,Unknown,190,2011-11-23 05:15:00
12:35 AM,68.0,60.8,78,29.88,10.0,SSW,10.4,18.4,N/A,,Unknown,200,2011-11-23 05:35:00
12:55 AM,68.0,60.8,78,29.87,10.0,SSW,11.5,18.4,N/A,,Unknown,200,2011-11-23 05:55:00
1:15 AM,66.2,62.6,88,29.86,10.0,SSW,11.5,17.3,N/A,,Unknown,200,2011-11-23 06:15:00
1:35 AM,66.2,62.6,88,29.85,10.0,SSW,11.5,18.4,0.04,,Unknown,200,2011-11-23 06:35:00
1:55 AM,66.2,62.6,88,29.83,7.0,South,9.2,-,0.06,,Unknown,190,2011-11-23 06:55:00
2:15 AM,66.2,62.6,88,29.81,10.0,SSW,11.5,16.1,N/A,,Unknown,210,2011-11-23 07:15:00
2:35 AM,66.2,62.6,88,29.80,10.0,SSW,13.8,17.3,N/A,,Unknown,210,2011-11-23 07:35:00
2:55 AM,66.2,62.6,88,29.80,10.0,SSW,12.7,24.2,N/A,,Unknown,210,2011-11-23 07:55:00
3:15 AM,66.2,64.4,94,29.78,10.0,SSW,16.1,20.7,N/A,,Unknown,210,2011-11-23 08:15:00
3:35 AM,66.2,62.6,88,29.77,10.0,SW,18.4,26.5,N/A,,Unknown,220,2011-11-23 08:35:00
4:15 AM,66.2,62.6,88,29.77,10.0,SW,10.4,-,N/A,,Unknown,230,2011-11-23 09:15:00
4:35 AM,66.2,62.6,88,29.76,10.0,SW,9.2,16.1,N/A,,Unknown,220,2011-11-23 09:35:00
4:55 AM,66.2,62.6,88,29.77,10.0,SW,11.5,-,N/A,,Unknown,230,2011-11-23 09:55:00
5:15 AM,66.2,62.6,88,29.77,10.0,SW,10.4,18.4,N/A,,Unknown,220,2011-11-23 10:15:00
5:35 AM,66.2,62.6,88,29.76,10.0,SW,9.2,-,N/A,,Unknown,220,2011-11-23 10:35:00
5:55 AM,66.2,62.6,88,29.76,10.0,SW,10.4,-,N/A,,Unknown,230,2011-11-23 10:55:00
6:15 AM,66.2,62.6,88,29.76,10.0,SW,9.2,-,N/A,,Unknown,230,2011-11-23 11:15:00
6:35 AM,66.2,62.6,88,29.76,10.0,WSW,9.2,-,N/A,,Unknown,240,2011-11-23 11:35:00
6:55 AM,66.2,62.6,88,29.77,10.0,SW,10.4,-,N/A,,Unknown,230,2011-11-23 11:55:00
7:15 AM,64.4,62.6,94,29.76,10.0,SW,9.2,-,N/A,,Unknown,230,2011-11-23 12:15:00
7:35 AM,66.2,62.6,88,29.77,10.0,WSW,9.2,-,N/A,,Unknown,240,2011-11-23 12:35:00
7:55 AM,64.4,62.6,94,29.78,10.0,WSW,10.4,-,N/A,,Unknown,240,2011-11-23 12:55:00
8:15 AM,66.2,62.6,88,29.79,10.0,WSW,8.1,-,N/A,,Unknown,250,2011-11-23 13:15:00
8:35 AM,66.2,62.6,88,29.78,10.0,WSW,11.5,-,N/A,,Unknown,240,2011-11-23 13:35:00
8:55 AM,66.2,60.8,83,29.78,10.0,WSW,8.1,-,N/A,,Unknown,240,2011-11-23 13:55:00
9:15 AM,68.0,60.8,78,29.78,10.0,WSW,8.1,-,N/A,,Unknown,250,2011-11-23 14:15:00
9:35 AM,69.8,59.0,68,29.78,10.0,WSW,9.2,20.7,N/A,,Unknown,250,2011-11-23 14:35:00
9:55 AM,69.8,57.2,64,29.78,10.0,West,6.9,23.0,N/A,,Unknown,270,2011-11-23 14:55:00
10:15 AM,71.6,55.4,57,29.77,10.0,WSW,16.1,19.6,N/A,,Unknown,240,2011-11-23 15:15:00
10:35 AM,69.8,51.8,53,29.77,10.0,West,16.1,26.5,N/A,,Unknown,270,2011-11-23 15:35:00
10:55 AM,71.6,48.2,43,29.76,10.0,WNW,16.1,29.9,N/A,,Unknown,290,2011-11-23 15:55:00
11:15 AM,71.6,48.2,43,29.76,10.0,West,10.4,19.6,N/A,,Unknown,270,2011-11-23 16:15:00
11:35 AM,71.6,46.4,41,29.76,10.0,WNW,10.4,21.9,N/A,,Unknown,300,2011-11-23 16:35:00
11:55 AM,69.8,44.6,40,29.76,10.0,WNW,13.8,25.3,N/A,,Unknown,290,2011-11-23 16:55:00
12:15 PM,69.8,44.6,40,29.76,10.0,West,15.0,26.5,N/A,,Unknown,280,2011-11-23 17:15:00
12:35 PM,66.2,42.8,43,29.79,10.0,NW,17.3,26.5,N/A,,Unknown,320,2011-11-23 17:35:00
12:55 PM,64.4,37.4,37,29.81,10.0,WNW,17.3,29.9,N/A,,Unknown,300,2011-11-23 17:55:00
1:15 PM,62.6,37.4,39,29.82,10.0,NW,8.1,25.3,N/A,,Unknown,320,2011-11-23 18:15:00
1:35 PM,62.6,35.6,37,29.84,10.0,WNW,17.3,32.2,N/A,,Unknown,300,2011-11-23 18:35:00
1:55 PM,62.6,35.6,37,29.85,10.0,WNW,11.5,25.3,N/A,,Unknown,290,2011-11-23 18:55:00
2:15 PM,62.6,35.6,37,29.85,10.0,WNW,16.1,27.6,N/A,,Unknown,290,2011-11-23 19:15:00
2:35 PM,60.8,35.6,39,29.86,10.0,NW,16.1,27.6,N/A,,Unknown,320,2011-11-23 19:35:00
2:55 PM,60.8,32.0,34,29.87,10.0,NW,15.0,25.3,N/A,,Unknown,310,2011-11-23 19:55:00
3:15 PM,60.8,32.0,34,29.89,10.0,NW,13.8,20.7,N/A,,Unknown,320,2011-11-23 20:15:00
3:35 PM,59.0,32.0,36,29.89,10.0,NNW,13.8,28.8,N/A,,Unknown,330,2011-11-23 20:35:00
3:55 PM,59.0,33.8,39,29.90,10.0,NW,16.1,27.6,N/A,,Unknown,310,2011-11-23 20:55:00
4:15 PM,57.2,33.8,41,29.92,10.0,NNW,12.7,24.2,N/A,,Unknown,340,2011-11-23 21:15:00
4:35 PM,57.2,33.8,41,29.92,10.0,NW,15.0,27.6,N/A,,Unknown,310,2011-11-23 21:35:00
4:55 PM,55.4,35.6,47,29.94,10.0,NW,10.4,29.9,N/A,,Unknown,320,2011-11-23 21:55:00
5:15 PM,55.4,35.6,47,29.95,10.0,NW,9.2,27.6,N/A,,Unknown,320,2011-11-23 22:15:00
5:35 PM,55.4,35.6,47,29.98,10.0,NNW,5.8,19.6,N/A,,Unknown,330,2011-11-23 22:35:00
5:55 PM,53.6,35.6,51,29.99,10.0,NNW,11.5,20.7,N/A,,Unknown,330,2011-11-23 22:55:00
6:15 PM,53.6,35.6,51,30.00,10.0,NW,10.4,18.4,N/A,,Unknown,320,2011-11-23 23:15:00
6:35 PM,53.6,33.8,47,30.01,10.0,NNW,9.2,27.6,N/A,,Unknown,330,2011-11-23 23:35:00
6:55 PM,53.6,33.8,47,30.03,10.0,NNW,12.7,20.7,N/A,,Unknown,330,2011-11-23 23:55:00
7:15 PM,53.6,33.8,47,30.04,10.0,NW,8.1,19.6,N/A,,Unknown,320,2011-11-24 00:15:00
7:35 PM,51.8,33.8,50,30.05,10.0,NW,9.2,19.6,N/A,,Unknown,320,2011-11-24 00:35:00
7:55 PM,51.8,32.0,47,30.06,10.0,NW,12.7,18.4,N/A,,Unknown,320,2011-11-24 00:55:00
8:15 PM,51.8,32.0,47,30.07,10.0,NNW,9.2,17.3,N/A,,Unknown,330,2011-11-24 01:15:00
8:35 PM,51.8,32.0,47,30.07,10.0,NW,4.6,-,N/A,,Unknown,320,2011-11-24 01:35:00
8:55 PM,51.8,30.2,44,30.09,10.0,NW,5.8,-,N/A,,Unknown,320,2011-11-24 01:55:00
9:15 PM,51.8,30.2,44,30.09,10.0,NW,4.6,-,N/A,,Unknown,310,2011-11-24 02:15:00
9:35 PM,50.0,30.2,47,30.10,10.0,Calm,Calm,-,N/A,,Unknown,0,2011-11-24 02:35:00
9:55 PM,50.0,30.2,47,30.11,10.0,NW,4.6,-,N/A,,Unknown,320,2011-11-24 02:55:00
10:15 PM,48.2,30.2,50,30.12,10.0,NW,5.8,-,N/A,,Unknown,320,2011-11-24 03:15:00
10:35 PM,48.2,30.2,50,30.12,10.0,NW,4.6,-,N/A,,Unknown,320,2011-11-24 03:35:00
10:55 PM,48.2,30.2,50,30.13,10.0,Calm,Calm,-,N/A,,Unknown,0,2011-11-24 03:55:00
11:15 PM,48.2,30.2,50,30.13,10.0,NW,5.8,-,N/A,,Unknown,320,2011-11-24 04:15:00
11:35 PM,48.2,30.2,50,30.13,10.0,NNW,6.9,-,N/A,,Unknown,330,2011-11-24 04:35:00
11:55 PM,48.2,30.2,50,30.14,10.0,NNW,8.1,-,N/A,,Unknown,340,2011-11-24 04:55:00